| time (UTC) | temp F | wind direction | speed MPH | gust MPH | rain 1hr in | rain 24hr in | rain mn in | humidity % | barometer mb |
| 20260901052004 | 58 | 0 | 0.0 | 0.0 | 0.00 | 0.00 | 0.00 | 93 | 1015.2 |
| 20260901051003 | 59 | 0 | 0.0 | 0.0 | 0.00 | 0.01 | 0.00 | 92 | 1015.2 |
| 20260901050003 | 59 | 0 | 0.0 | 0.0 | 0.00 | 0.02 | 0.00 | 92 | 1015.2 |
| 20260901045003 | 60 | 0 | 0.0 | 0.0 | 0.00 | 0.02 | 0.00 | 92 | 1015.2 |
| 20260901044003 | 59 | 0 | 0.0 | 0.0 | 0.00 | 0.02 | 0.00 | 92 | 1015.5 |
| 20260901043213 | 59 | 0 | 0.0 | 0.0 | 0.00 | 0.02 | 0.00 | 92 | 1015.2 |
| 20260901042003 | 59 | 0 | 0.0 | 0.0 | 0.00 | 0.03 | 0.00 | 92 | 1014.8 |
| 20260901041003 | 59 | 0 | 0.0 | 0.0 | 0.00 | 0.03 | 0.00 | 92 | 1015.2 |
| 20260901040003 | 59 | 0 | 0.0 | 0.0 | 0.00 | 0.03 | 0.00 | 92 | 1014.8 |
| 20260901035003 | 59 | 0 | 0.0 | 0.0 | 0.00 | 0.03 | 0.00 | 91 | 1014.8 |
| 20260901034004 | 60 | 0 | 0.0 | 0.0 | 0.00 | 0.03 | 0.00 | 91 | 1014.8 |
| 20260901033003 | 60 | 0 | 0.0 | 0.0 | 0.00 | 0.03 | 0.00 | 91 | 1014.8 |
| 20260901032003 | 60 | 0 | 0.0 | 0.0 | 0.00 | 0.05 | 0.00 | 90 | 1014.8 |
| 20260901031003 | 60 | 0 | 0.0 | 0.0 | 0.00 | 0.05 | 0.00 | 89 | 1014.8 |
| 20260901030004 | 60 | 0 | 0.0 | 0.0 | 0.00 | 0.05 | 0.00 | 89 | 1014.8 |
| 20260901025213 | 60 | 0 | 0.0 | 0.0 | 0.00 | 0.05 | 0.05 | 89 | 1014.8 |
| 20260901024003 | 60 | 0 | 0.0 | 0.0 | 0.00 | 0.05 | 0.05 | 89 | 1015.2 |
| 20260901023003 | 60 | 0 | 0.0 | 0.0 | 0.00 | 0.05 | 0.05 | 89 | 1014.8 |
| 20260901022003 | 61 | 296 | 0.0 | 1.0 | 0.00 | 0.05 | 0.05 | 89 | 1014.8 |
| 20260901021003 | 61 | 0 | 0.0 | 0.0 | 0.00 | 0.05 | 0.05 | 89 | 1014.5 |
| 20260901020003 | 61 | 0 | 0.0 | 0.0 | 0.00 | 0.05 | 0.05 | 88 | 1014.5 |
| 20260901015004 | 61 | 0 | 0.0 | 0.0 | 0.00 | 0.05 | 0.05 | 89 | 1014.8 |
| 20260901014003 | 61 | 0 | 0.0 | 0.0 | 0.00 | 0.05 | 0.05 | 89 | 1014.5 |
| 20260901013003 | 61 | 0 | 0.0 | 0.0 | 0.00 | 0.05 | 0.05 | 89 | 1014.5 |
| 20260901012003 | 61 | 0 | 0.0 | 0.0 | 0.00 | 0.05 | 0.05 | 89 | 1014.5 |
| 20260901011004 | 61 | 0 | 0.0 | 0.0 | 0.00 | 0.05 | 0.05 | 89 | 1014.8 |
| 20260901010004 | 61 | 0 | 0.0 | 0.0 | 0.00 | 0.05 | 0.05 | 88 | 1014.5 |
| 20260901005003 | 62 | 0 | 0.0 | 0.0 | 0.00 | 0.05 | 0.05 | 87 | 1014.5 |
| 20260901004003 | 62 | 0 | 0.0 | 0.0 | 0.00 | 0.05 | 0.05 | 87 | 1014.5 |
| 20260901003003 | 62 | 0 | 0.0 | 0.0 | 0.00 | 0.05 | 0.05 | 87 | 1014.5 |
| 20260901002003 | 61 | 0 | 0.0 | 0.0 | 0.00 | 0.05 | 0.05 | 87 | 1014.5 |
| 20260901001003 | 61 | 0 | 0.0 | 0.0 | 0.00 | 0.05 | 0.05 | 88 | 1014.5 |
| 20260901000003 | 61 | 0 | 0.0 | 0.0 | 0.00 | 0.05 | 0.05 | 88 | 1014.1 |
| 20260831235003 | 61 | 0 | 0.0 | 0.0 | 0.00 | 0.05 | 0.05 | 87 | 1013.8 |
| 20260831234003 | 61 | 0 | 0.0 | 0.0 | 0.00 | 0.05 | 0.05 | 87 | 1013.8 |
| 20260831233003 | 62 | 0 | 0.0 | 0.0 | 0.00 | 0.05 | 0.05 | 86 | 1013.8 |
| 20260831232003 | 62 | 0 | 0.0 | 0.0 | 0.00 | 0.05 | 0.05 | 85 | 1013.8 |
| 20260831231213 | 62 | 0 | 0.0 | 0.0 | 0.00 | 0.05 | 0.05 | 85 | 1013.8 |
| 20260831230213 | 62 | 0 | 0.0 | 0.0 | 0.00 | 0.05 | 0.05 | 85 | 1013.8 |
| 20260831225003 | 62 | 0 | 0.0 | 0.0 | 0.00 | 0.05 | 0.05 | 83 | 1013.5 |
| 20260831224003 | 63 | 0 | 0.0 | 0.0 | 0.00 | 0.05 | 0.05 | 81 | 1013.5 |
| 20260831223003 | 64 | 0 | 0.0 | 0.0 | 0.00 | 0.05 | 0.05 | 79 | 1013.5 |
| 20260831222003 | 65 | 0 | 0.0 | 0.0 | 0.00 | 0.05 | 0.05 | 75 | 1013.5 |
| 20260831221003 | 66 | 0 | 0.0 | 0.0 | 0.00 | 0.05 | 0.05 | 71 | 1013.5 |
| 20260831220003 | 67 | 0 | 0.0 | 0.0 | 0.00 | 0.05 | 0.05 | 67 | 1013.1 |
| 20260831215003 | 68 | 316 | 0.0 | 1.0 | 0.00 | 0.05 | 0.05 | 61 | 1013.1 |
| 20260831214003 | 69 | 273 | 0.0 | 2.0 | 0.00 | 0.05 | 0.05 | 58 | 1013.5 |
| 20260831213004 | 71 | 288 | 0.0 | 2.0 | 0.00 | 0.05 | 0.05 | 55 | 1013.5 |
| 20260831212003 | 71 | 284 | 1.0 | 3.0 | 0.00 | 0.05 | 0.05 | 53 | 1013.5 |
| 20260831211003 | 72 | 298 | 1.0 | 4.0 | 0.00 | 0.05 | 0.05 | 53 | 1013.1 |
| 20260831210003 | 74 | 247 | 1.0 | 2.0 | 0.00 | 0.05 | 0.05 | 51 | 1013.5 |
| 20260831205003 | 74 | 305 | 1.0 | 2.0 | 0.00 | 0.05 | 0.05 | 48 | 1013.5 |
| 20260831204003 | 74 | 236 | 1.0 | 4.0 | 0.00 | 0.05 | 0.05 | 48 | 1013.1 |
| 20260831203003 | 74 | 314 | 1.0 | 7.0 | 0.00 | 0.05 | 0.05 | 49 | 1013.1 |
| 20260831202003 | 74 | 284 | 1.0 | 4.0 | 0.00 | 0.05 | 0.05 | 48 | 1013.1 |
| 20260831201003 | 74 | 298 | 1.0 | 4.0 | 0.00 | 0.05 | 0.05 | 48 | 1013.1 |
| 20260831200214 | 73 | 279 | 1.0 | 4.0 | 0.00 | 0.05 | 0.05 | 49 | 1013.1 |
| 20260831195214 | 73 | 326 | 1.0 | 7.0 | 0.00 | 0.05 | 0.05 | 49 | 1013.1 |
| 20260831194214 | 73 | 280 | 1.0 | 6.0 | 0.00 | 0.05 | 0.05 | 48 | 1013.1 |
| 20260831193003 | 74 | 312 | 1.0 | 3.0 | 0.00 | 0.05 | 0.05 | 48 | 1013.1 |
| 20260831192003 | 74 | 271 | 1.0 | 4.0 | 0.00 | 0.05 | 0.05 | 46 | 1013.1 |
| 20260831191214 | 74 | 277 | 1.0 | 4.0 | 0.00 | 0.05 | 0.05 | 47 | 1012.8 |
| 20260831190003 | 73 | 266 | 1.0 | 6.0 | 0.00 | 0.05 | 0.05 | 46 | 1012.8 |
| 20260831185003 | 73 | 306 | 1.0 | 4.0 | 0.00 | 0.05 | 0.05 | 48 | 1012.8 |
| 20260831184214 | 73 | 316 | 1.0 | 7.0 | 0.00 | 0.05 | 0.05 | 52 | 1012.8 |
| 20260831183003 | 73 | 329 | 1.0 | 4.0 | 0.00 | 0.05 | 0.05 | 49 | 1012.8 |
| 20260831182003 | 72 | 329 | 2.0 | 6.0 | 0.00 | 0.05 | 0.05 | 48 | 1012.8 |
| 20260831181003 | 72 | 305 | 1.0 | 7.0 | 0.00 | 0.05 | 0.05 | 49 | 1012.8 |
| 20260831180003 | 72 | 339 | 2.0 | 6.0 | 0.00 | 0.05 | 0.05 | 50 | 1012.8 |
| 20260831175213 | 72 | 211 | 1.0 | 3.0 | 0.00 | 0.05 | 0.05 | 50 | 1012.8 |
| 20260831174003 | 71 | 345 | 2.0 | 7.0 | 0.00 | 0.05 | 0.05 | 51 | 1013.1 |
| 20260831173003 | 71 | 306 | 2.0 | 7.0 | 0.00 | 0.05 | 0.05 | 55 | 1013.1 |
| 20260831172003 | 71 | 283 | 1.0 | 4.0 | 0.00 | 0.05 | 0.05 | 51 | 1013.1 |
| 20260831171003 | 71 | 272 | 2.0 | 6.0 | 0.00 | 0.05 | 0.05 | 51 | 1013.1 |
| 20260831170213 | 70 | 335 | 1.0 | 8.0 | 0.00 | 0.05 | 0.05 | 51 | 1012.8 |
| 20260831165003 | 71 | 10 | 2.0 | 6.0 | 0.00 | 0.05 | 0.05 | 51 | 1013.1 |
| 20260831164213 | 71 | 321 | 1.0 | 4.0 | 0.00 | 0.05 | 0.05 | 51 | 1012.8 |
| 20260831163003 | 69 | 16 | 1.0 | 4.0 | 0.00 | 0.05 | 0.05 | 53 | 1012.8 |
| 20260831162213 | 68 | 316 | 1.0 | 6.0 | 0.00 | 0.05 | 0.05 | 58 | 1012.8 |
| 20260831161003 | 70 | 304 | 2.0 | 8.0 | 0.00 | 0.05 | 0.05 | 54 | 1012.8 |
| 20260831160003 | 69 | 309 | 1.0 | 4.0 | 0.00 | 0.05 | 0.05 | 54 | 1013.1 |
| 20260831155213 | 68 | 343 | 2.0 | 6.0 | 0.00 | 0.05 | 0.05 | 56 | 1012.8 |
| 20260831154213 | 69 | 269 | 2.0 | 6.0 | 0.00 | 0.05 | 0.05 | 55 | 1012.8 |
| 20260831153003 | 69 | 341 | 1.0 | 4.0 | 0.00 | 0.05 | 0.05 | 52 | 1012.8 |
| 20260831152004 | 69 | 309 | 2.0 | 7.0 | 0.00 | 0.05 | 0.05 | 55 | 1012.8 |
| 20260831151003 | 68 | 287 | 2.0 | 7.0 | 0.00 | 0.05 | 0.05 | 56 | 1012.8 |
| 20260831150003 | 68 | 280 | 2.0 | 6.0 | 0.00 | 0.05 | 0.05 | 56 | 1013.1 |
| 20260831145003 | 67 | 284 | 2.0 | 6.0 | 0.00 | 0.05 | 0.05 | 58 | 1012.8 |
| 20260831144214 | 68 | 297 | 1.0 | 4.0 | 0.00 | 0.05 | 0.05 | 59 | 1012.8 |
| 20260831143003 | 67 | 289 | 2.0 | 10.0 | 0.00 | 0.05 | 0.05 | 60 | 1013.1 |
| 20260831142003 | 67 | 336 | 2.0 | 8.0 | 0.00 | 0.05 | 0.05 | 58 | 1013.1 |
| 20260831141003 | 67 | 316 | 1.0 | 7.0 | 0.00 | 0.05 | 0.05 | 58 | 1012.8 |
| 20260831140003 | 66 | 274 | 1.0 | 4.0 | 0.00 | 0.05 | 0.05 | 61 | 1012.8 |
| 20260831135003 | 66 | 319 | 2.0 | 9.0 | 0.00 | 0.05 | 0.05 | 62 | 1012.8 |
| 20260831134003 | 65 | 288 | 1.0 | 4.0 | 0.00 | 0.05 | 0.05 | 61 | 1012.8 |
| 20260831133003 | 64 | 217 | 1.0 | 3.0 | 0.00 | 0.05 | 0.05 | 65 | 1012.8 |
| 20260831132003 | 64 | 306 | 1.0 | 4.0 | 0.00 | 0.05 | 0.05 | 65 | 1012.8 |
| 20260831131214 | 65 | 318 | 1.0 | 4.0 | 0.00 | 0.05 | 0.05 | 65 | 1012.8 |
| 20260831130214 | 63 | 286 | 1.0 | 4.0 | 0.00 | 0.05 | 0.05 | 69 | 1012.4 |
| 20260831125004 | 62 | 309 | 1.0 | 3.0 | 0.00 | 0.05 | 0.05 | 72 | 1012.4 |
| 20260831124003 | 62 | 284 | 1.0 | 4.0 | 0.00 | 0.05 | 0.05 | 75 | 1012.1 |
| 20260831123003 | 61 | 284 | 1.0 | 3.0 | 0.00 | 0.05 | 0.05 | 74 | 1012.1 |
| 20260831122003 | 60 | 291 | 1.0 | 2.0 | 0.00 | 0.05 | 0.05 | 78 | 1012.4 |
| 20260831121003 | 60 | 246 | 0.0 | 2.0 | 0.00 | 0.05 | 0.05 | 79 | 1012.8 |
| 20260831120003 | 58 | 301 | 0.0 | 3.0 | 0.00 | 0.05 | 0.05 | 80 | 1012.4 |
| 20260831115003 | 58 | 301 | 0.0 | 2.0 | 0.00 | 0.05 | 0.05 | 82 | 1012.4 |
| 20260831114003 | 56 | 285 | 1.0 | 2.0 | 0.00 | 0.05 | 0.05 | 84 | 1012.4 |
| 20260831113004 | 55 | 295 | 0.0 | 2.0 | 0.00 | 0.05 | 0.05 | 88 | 1012.4 |
| 20260831112003 | 54 | 304 | 0.0 | 2.0 | 0.00 | 0.05 | 0.05 | 93 | 1012.1 |
| 20260831111003 | 53 | 236 | 0.0 | 2.0 | 0.00 | 0.05 | 0.05 | 98 | 1012.4 |
| 20260831110003 | 52 | 236 | 0.0 | 2.0 | 0.00 | 0.05 | 0.05 | 99 | 1012.1 |
| 20260831105003 | 51 | 291 | 0.0 | 1.0 | 0.00 | 0.05 | 0.05 | 99 | 1012.1 |
| 20260831104003 | 51 | 319 | 0.0 | 1.0 | 0.00 | 0.05 | 0.05 | 99 | 1011.8 |
| 20260831103003 | 51 | 3 | 0.0 | 1.0 | 0.00 | 0.05 | 0.05 | 99 | 1011.8 |
| 20260831102003 | 51 | 160 | 0.0 | 1.0 | 0.00 | 0.05 | 0.05 | 99 | 1012.1 |
| 20260831101003 | 51 | 214 | 0.0 | 1.0 | 0.00 | 0.05 | 0.05 | 99 | 1011.4 |
| 20260831100003 | 51 | 215 | 0.0 | 1.0 | 0.00 | 0.05 | 0.05 | 99 | 1011.4 |
| 20260831095003 | 51 | 246 | 0.0 | 2.0 | 0.00 | 0.05 | 0.05 | 99 | 1011.4 |
| 20260831094212 | 51 | 249 | 0.0 | 2.0 | 0.00 | 0.05 | 0.05 | 99 | 1011.4 |
| 20260831093003 | 51 | 221 | 0.0 | 3.0 | 0.00 | 0.05 | 0.05 | 99 | 1011.1 |
| 20260831092214 | 51 | 226 | 0.0 | 2.0 | 0.00 | 0.05 | 0.05 | 99 | 1011.1 |
| 20260831091003 | 52 | 215 | 0.0 | 1.0 | 0.00 | 0.05 | 0.05 | 99 | 1011.1 |
| 20260831090003 | 52 | 241 | 0.0 | 1.0 | 0.00 | 0.05 | 0.05 | 99 | 1010.7 |
| 20260831085214 | 52 | 236 | 0.0 | 2.0 | 0.00 | 0.05 | 0.05 | 99 | 1010.7 |
| 20260831084003 | 52 | 219 | 0.0 | 2.0 | 0.00 | 0.05 | 0.05 | 98 | 1011.1 |
| 20260831083003 | 53 | 232 | 0.0 | 2.0 | 0.00 | 0.05 | 0.05 | 98 | 1010.7 |
| 20260831082003 | 53 | 266 | 0.0 | 1.0 | 0.00 | 0.05 | 0.05 | 98 | 1010.7 |
| 20260831081003 | 53 | 212 | 0.0 | 2.0 | 0.00 | 0.05 | 0.05 | 98 | 1010.4 |
| 20260831080003 | 54 | 195 | 0.0 | 1.0 | 0.00 | 0.05 | 0.05 | 98 | 1010.4 |
| 20260831075003 | 54 | 0 | 0.0 | 0.0 | 0.00 | 0.05 | 0.05 | 98 | 1010.4 |
| 20260831074004 | 55 | 0 | 0.0 | 0.0 | 0.00 | 0.05 | 0.05 | 98 | 1010.1 |
| 20260831073003 | 55 | 0 | 0.0 | 0.0 | 0.00 | 0.05 | 0.05 | 98 | 1010.4 |
| 20260831072003 | 56 | 168 | 0.0 | 1.0 | 0.00 | 0.05 | 0.05 | 98 | 1010.4 |
| 20260831071003 | 56 | 0 | 0.0 | 0.0 | 0.00 | 0.05 | 0.05 | 98 | 1010.4 |
| 20260831070003 | 56 | 0 | 0.0 | 0.0 | 0.00 | 0.05 | 0.05 | 98 | 1010.1 |
| 20260831065003 | 56 | 191 | 0.0 | 1.0 | 0.00 | 0.05 | 0.05 | 98 | 1010.1 |
| 20260831064003 | 56 | 199 | 0.0 | 1.0 | 0.00 | 0.05 | 0.05 | 98 | 1010.1 |
| 20260831063003 | 57 | 0 | 0.0 | 0.0 | 0.00 | 0.05 | 0.05 | 98 | 1010.1 |
| 20260831062003 | 57 | 198 | 0.0 | 1.0 | 0.00 | 0.05 | 0.05 | 98 | 1010.1 |
| 20260831061003 | 57 | 0 | 0.0 | 0.0 | 0.01 | 0.05 | 0.05 | 97 | 1009.7 |
| 20260831060003 | 57 | 0 | 0.0 | 0.0 | 0.02 | 0.05 | 0.05 | 97 | 1009.7 |
| 20260831055213 | 57 | 216 | 0.0 | 1.0 | 0.02 | 0.05 | 0.05 | 97 | 1010.1 |
| 20260831054003 | 57 | 258 | 0.0 | 2.0 | 0.02 | 0.05 | 0.05 | 97 | 1010.1 |
| 20260831053003 | 58 | 281 | 0.0 | 2.0 | 0.02 | 0.05 | 0.05 | 97 | 1010.1 |